Location: Tel Aviv
(32.0670°N, 34.7670°E)
Time: 19:21:04
(UTC+03:00)

Transit 2A - Pass Details

Date: 03 June 2024
Orbit: 593 x 959 km, 66.7° (Epoch: 14 June)

Event Time Altitude Azimuth Distance (km) Brightness Sun altitude
Rises 20:52:23 0° 241° (WSW) 2,913 9.3 -13.1°
Reaches altitude 10° 20:55:05 10° 258° (WSW) 2,058 8.8 -13.6°
Maximum altitude 20:58:34 21° 307° (NW) 1,542 8.7 -14.2°
Drops below altitude 10° 21:02:18 10° 355° (N) 2,224 9.0 -14.8°
Sets 21:05:22 0° 11° (NNE) 3,227 9.6 -15.3°
